Location: Fredericton
(45.9636°N, 66.6431°W)
Time: 22:20:15
(UTC-03:00)

Envisat - Visible Passes

Search period start: 10 June 2023 00:00
Search period end: 20 June 2023 00:00
Orbit: 763 x 765 km, 98.2° (Epoch: 10 June)

Date Brightness Start Highest point End Pass type
(mag) Time Alt. Az. Time Alt. Az. Time Alt. Az.
11 Jun 4.9 04:30:21 10° NE 04:34:41 28° E 04:39:00 10° SSE visible
12 Jun 5.6 03:54:50 10° ENE 03:57:07 13° E 03:59:24 10° ESE visible
13 Jun 4.1 04:54:40 10° NNE 04:59:33 45° E 05:04:24 10° S visible
14 Jun 5.2 04:18:14 10° NE 04:22:08 22° E 04:26:00 10° SE visible
16 Jun 4.5 04:42:22 10° NNE 04:47:02 36° E 04:51:40 10° SSE visible
17 Jun 5.5 04:06:16 10° NE 04:09:33 17° E 04:12:48 10° SE visible
19 Jun 4.9 04:30:09 10° NE 04:34:30 28° E 04:38:49 10° SSE visible
